ORBCOMM FM06 1 25118U 97084G 26258.26298227 .00000901 00000+0 28064-3 0 9998 2 25118 45.0152 339.0163 0001857 245.8480 144.4826 14.47747792507444 ORBCOMM FM04 1 25159U 98007C 26257.71272847 .00000622 00000+0 25793-3 0 9994 2 25159 107.9604 353.6772 0040547 172.4689 187.7069 14.35862980489444 ORBCOMM FM19 1 25415U 98046C 26258.24950411 .00000786 00000+0 29435-3 0 9999 2 25415 44.9932 175.4107 0004541 22.4556 143.4479 14.39637191469750 ORBCOMM FM20 1 25416U 98046D 26258.18212089 .00000536 00000+0 22133-3 0 9996 2 25416 44.9932 184.6580 0002171 350.3230 9.7576 14.38171429469744 ORBCOMM FM27 1 25481U 98053G 26258.08004675 .00000599 00000+0 23679-3 0 9990 2 25481 45.0045 268.3426 0002919 286.9781 73.0747 14.39276517463188 ORBCOMM FM32 1 25982U 99065C 26257.96224736 .00000495 00000+0 21196-3 0 9995 2 25982 45.0149 108.2613 0006078 139.1007 221.0298 14.37239252400000 ORBCOMM FM109 1 40086U 14040A 26258.08860957 .00000317 00000+0 10320-3 0 9992 2 40086 47.0043 26.4139 0002107 264.1289 95.9357 14.58918247647470 ORBCOMM FM110 1 41182U 15081D 26258.15924896 .00000366 00000+0 11339-3 0 9992 2 41182 47.0021 295.9897 0002149 153.3889 206.7107 14.58989199570765 ORBCOMM FM118 1 41183U 15081E 26257.16716528 .00000354 00000+0 11086-3 0 9990 2 41183 47.0043 301.0391 0001680 80.6128 279.4948 14.58971309570725 ORBCOMM FM112 1 41184U 15081F 26258.19770153 .00000446 00000+0 13036-3 0 9998 2 41184 46.9982 204.5821 0003573 270.3377 89.7100 14.58957475572090 ORBCOMM FM113 1 41185U 15081G 26258.24577963 .00000339 00000+0 10774-3 0 9996 2 41185 46.9996 204.7768 0002359 273.2817 86.7799 14.58932093572089 ORBCOMM FM108 1 41187U 15081J 26257.65830968 .00000429 00000+0 12673-3 0 9999 2 41187 47.0041 119.1417 0002567 255.1578 104.9024 14.58979361573149 ORBCOMM FM117 1 41188U 15081K 26258.03556471 .00000424 00000+0 12562-3 0 9999 2 41188 47.0005 115.9717 0003028 262.1890 97.8652 14.58961906573249 ORBCOMM FM116 1 41189U 15081L 26258.22143221 .00000378 00000+0 11599-3 0 9993 2 41189 47.0013 204.8903 0000492 112.1413 247.9525 14.58959339572086